[[{"header":{"parameterUnit":"m.s-1","parameterCategory":1,"la1":30.2991,"la2":30.254,"lo1":-89.0895,"lo2":-89.0444,"dy":0.0017,"dx":0.0017,"nx":28,"ny":28,"refTime":"2024-06-08T03:00:00:Z","depth":0,"parameterNumber":2,"parameterNumberName":"U-component_of_WINDS"},"data":[0,0,0,0,0,0,0,0,0,0,0,0,0,0,0,0,0,0,0,0,0,0,0,0,0,0,0,0,0,0,0,0,0,0,0,0,0,0,0,0,0,0,0,0,0,0,0,0,0,0,0,0,0,0,0,0,0,0,-2.0428,-2.0428,0,-2.0496,-2.0497,-2.0498,-2.0458,-2.0456,-2.0454,-2.0452,-2.0526,-2.053,-2.0533,0,0,0,0,0,0,0,0,0,0,0,0,0,-2.0266,-2.0269,-2.0428,-2.0429,-2.0429,-2.0496,-2.0497,-2.0498,-2.0458,-2.0456,-2.0454,-2.0451,-2.0525,-2.0529,-2.0534,0,0,0,0,0,0,0,0,0,0,0,0,0,-2.0336,-2.027,-2.0428,-2.0418,-2.0417,-2.0496,-2.0497,-2.0498,-2.0459,-2.0456,-2.0453,-2.045,-2.0523,-2.0529,-2.0534,-2.0628,0,0,-2.0552,-2.0554,0,0,0,0,0,0,0,0,-2.0332,-2.0342,-2.0418,-2.0418,-2.0418,-2.0465,-2.0467,-2.0542,-2.0459,-2.0443,-2.0452,-2.0449,-2.0508,-2.0515,-2.0534,-2.0631,-2.0634,-2.0552,-2.0556,-2.0558,-2.056,0,0,0,0,0,0,0,-2.0327,-2.0338,-2.0455,-2.0419,-2.0419,-2.0411,-2.0417,-2.0481,-2.0491,-2.0444,-2.0442,-2.045,-2.0508,-2.0529,-2.0536,-2.0635,-2.0552,-2.0557,-2.056,-2.0563,-2.0811,-2.0814,0,0,0,0,0,0,-2.0322,-2.0335,-2.0453,-2.0457,-2.0367,-2.0416,-2.0423,-2.0453,-2.0491,-2.0493,-2.0452,-2.0448,-2.0521,-2.0529,-2.0538,-2.0649,-2.0558,-2.0563,-2.0566,-2.0808,-2.0812,-2.0815,0,0,0,0,0,0,-2.0319,-2.0333,-2.045,-2.0395,-2.0409,-2.0422,-2.0456,-2.0456,-2.0477,-2.0497,-2.0499,-2.0472,-2.0519,-2.053,-2.0605,-2.0651,-2.0566,-2.0571,-2.0804,-2.0809,-2.0814,-2.0872,0,0,0,0,0,0,-2.0315,-2.0332,-2.0367,-2.0396,-2.0412,-2.0515,-2.0459,-2.046,-2.0487,-2.0481,-2.0515,-2.0518,-2.0517,-2.0597,-2.0611,-2.0657,-2.0575,-2.08,-2.0806,-2.0812,-2.0866,-2.0878,-2.0889,0,0,0,0,0,-2.0309,-2.0382,-2.0369,-2.0383,-2.0456,-2.0518,-2.0527,-2.0523,-2.0491,-2.0526,-2.0538,-2.0517,-2.0644,-2.0605,-2.062,-2.0669,-2.0797,-2.0805,-2.0812,-2.0861,-2.0876,-2.0888,0,0,0,0,0,0,-2.0359,-2.0385,-2.0372,-2.0456,-2.0485,-2.0511,-2.0555,-2.0539,-2.0579,-2.0573,-2.0568,-2.0576,-2.0654,-2.0669,-2.0625,-2.0761,-2.0716,-2.0726,-2.0748,-2.0762,-2.0773,-2.0768,-2.058,0,0,0,0,0,-2.038,-2.0427,-2.0448,-2.052,-2.0535,-2.0543,-2.057,-2.0564,-2.0594,-2.0607,-2.0625,-2.0656,-2.0702,-2.0733,-2.0777,-2.0868,-2.0875,-2.091,-2.0921,-2.093,-2.0939,-2.0988,-2.1003,-2.0839,-2.0839,-2.0839,0,0,-2.0423,-2.0444,-2.0474,-2.053,-2.0552,-2.0601,-2.0553,-2.0608,-2.0644,-2.0615,-2.0686,-2.0701,-2.0735,-2.0818,-2.0856,-2.0834,-2.0986,-2.0939,-2.0946,-2.095,-2.0997,-2.1012,-2.1026,-2.0844,-2.0843,-2.0842,0,0,-2.0528,-2.0548,-2.0609,-2.0632,-2.0665,-2.067,-2.0685,-2.0713,-2.0721,-2.0792,-2.0771,-2.0816,-2.0896,-2.0921,-2.0945,-2.1058,-2.104,-2.1073,-2.1132,-2.1179,-2.1192,-2.1204,-2.1243,-2.1258,-2.1082,-2.1082,-2.1082,0,-2.0578,-2.065,-2.0644,-2.0699,-2.0725,-2.07,-2.0763,-2.0785,-2.0832,-2.085,-2.0825,-2.0925,-2.0946,-2.1034,-2.1062,-2.1082,-2.1099,-2.1069,-2.1191,-2.1202,-2.1213,-2.125,-2.1265,-2.1086,-2.1086,-2.1085,-2.1085,0,-2.071,-2.076,-2.0807,-2.085,-2.0881,-2.0941,-2.0944,-2.0977,-2.0969,-2.0976,-2.1049,-2.1074,-2.1122,-2.1143,-2.1137,-2.1231,-2.1216,-2.1191,-2.1145,-2.1232,-2.1267,-2.1282,-2.1091,-2.109,-2.1089,-2.1088,0,0,-2.0847,-2.0886,-2.0903,-2.0922,-2.0957,-2.0996,-2.1055,-2.11,-2.1128,-2.1161,-2.121,-2.1279,-2.1255,-2.1282,-2.1278,-2.132,-2.1408,-2.129,-2.1291,-2.131,-2.1512,-2.1529,-2.1546,-2.1396,-2.1399,-2.1401,-2.1508,0,-2.0952,-2.1052,-2.1048,-2.1142,-2.1189,-2.1166,-2.1217,-2.1244,-2.1253,-2.1295,-2.1305,-2.1353,-2.1319,-2.1335,-2.1376,-2.1388,-2.1448,-2.1381,-2.1442,-2.1444,-2.1432,-2.1565,-2.1584,-2.1684,-2.1522,-2.1525,-2.1526,0,-2.1088,-2.1124,-2.1222,-2.1249,-2.1269,-2.1314,-2.1356,-2.1396,-2.1427,-2.143,-2.146,-2.1449,-2.1509,-2.1462,-2.1545,-2.1499,-2.1524,-2.1534,-2.1538,-2.1543,-2.1489,-2.1572,-2.1715,-2.173,-2.1548,-2.1547,-2.1545,0,-2.1177,-2.125,-2.1318,-2.1335,-2.1369,-2.1401,-2.1417,-2.1445,-2.1473,-2.151,-2.1527,-2.1572,-2.1596,-2.1631,-2.1632,-2.1598,-2.1716,-2.1669,-2.172,-2.172,-2.1745,-2.1743,-2.1893,-2.1763,-2.1763,-2.1763,-2.1763,0,-2.1294,-2.1355,-2.1358,-2.14,-2.1467,-2.1463,-2.153,-2.1543,-2.1568,-2.1612,-2.1596,-2.1638,-2.1639,-2.1682,-2.1685,-2.1752,-2.1764,-2.1768,-2.1768,-2.1769,-2.1768,-2.1784,-2.1777,-2.1767,-2.1766,-2.1765,-2.1765,0,-2.1404,-2.1408,-2.1481,-2.1506,-2.1514,-2.1563,-2.1585,-2.1625,-2.1633,-2.1689,-2.1702,-2.1714,-2.1764,-2.177,-2.1829,-2.1831,-2.1911,-2.1905,-2.1901,-2.1899,-2.1949,-2.1944,-2.2114,-2.2136,-2.1993,-2.1994,-2.1996,0,-2.1477,-2.1523,-2.1553,-2.1581,-2.1598,-2.1644,-2.1671,-2.167,-2.17,-2.1738,-2.1773,-2.1822,-2.186,-2.1941,-2.1956,-2.2001,-2.1994,-2.2051,-2.2001,-2.2,-2.1994,-2.199,-2.1994,-2.206,-2.2062,-2.2063,-2.2064,0,-2.1607,-2.1607,-2.1647,-2.1688,-2.1721,-2.1754,-2.1785,-2.1809,-2.1811,-2.1846,-2.1896,-2.1925,-2.1985,-2.2033,-2.2077,-2.2095,-2.208,-2.208,-2.2094,-2.2094,-2.2089,-2.2091,-2.1925,-2.2076,-2.2074,-2.2074,-2.2073,-2.2072,-2.17,-2.1739,-2.1766,-2.1811,-2.1834,-2.1863,-2.1901,-2.1913,-2.1955,-2.2002,-2.1999,-2.2055,-2.2084,-2.2142,-2.2163,-2.2207,-2.2188,-2.2208,-2.2213,-2.2218,-2.2222,-2.2084,-2.2215,-2.2215,-2.2214,-2.2214,-2.2214,0,-2.1828,-2.1844,-2.1885,-2.1928,-2.1964,-2.1946,-2.1979,-2.201,-2.2058,-2.2087,-2.2125,-2.2183,-2.2229,-2.2248,-2.2294,-2.2325,-2.2319,-2.2337,-2.2334,-2.2338,-2.2237,-2.222,-2.2341,-2.2341,-2.2341,-2.2341,-2.2341,-2.2341,-2.1898,-2.1963,-2.1966,-2.2043,-2.2059,-2.2112,-2.2132,-2.2159,-2.2181,-2.2246,-2.2284,-2.2296,-2.232,-2.2368,-2.241,-2.2414,-2.2431,-2.2451,-2.2453,-2.2358,-2.2345,-2.2333,-2.2316,-2.2456,-2.2456,-2.255,-2.255,-2.2551]},{"header":{"parameterUnit":"m.s-1","parameterCategory":1,"la1":30.2991,"la2":30.254,"lo1":-89.0895,"lo2":-89.0444,"dy":0.0017,"dx":0.0017,"nx":28,"ny":28,"refTime":"2024-06-08T03:00:00:Z","depth":0,"parameterNumber":3,"parameterNumberName":"V-component_of_WINDS"},"data":[0,0,0,0,0,0,0,0,0,0,0,0,0,0,0,0,0,0,0,0,0,0,0,0,0,0,0,0,0,0,0,0,0,0,0,0,0,0,0,0,0,0,0,0,0,0,0,0,0,0,0,0,0,0,0,0,0,0,-2.2659,-2.2659,0,-2.2677,-2.2677,-2.2677,-2.2657,-2.2656,-2.2656,-2.2655,-2.2672,-2.2673,-2.2674,0,0,0,0,0,0,0,0,0,0,0,0,0,-2.2604,-2.2605,-2.2659,-2.2659,-2.2659,-2.2677,-2.2677,-2.2677,-2.2657,-2.2656,-2.2655,-2.2655,-2.2671,-2.2673,-2.2674,0,0,0,0,0,0,0,0,0,0,0,0,0,-2.2626,-2.2606,-2.2659,-2.2651,-2.2651,-2.2677,-2.2677,-2.2677,-2.2658,-2.2656,-2.2655,-2.2654,-2.2671,-2.2673,-2.2674,-2.2708,0,0,-2.2679,-2.268,0,0,0,0,0,0,0,0,-2.2624,-2.2628,-2.2652,-2.2652,-2.2651,-2.2664,-2.2664,-2.2688,-2.2658,-2.2655,-2.2655,-2.2654,-2.267,-2.2672,-2.2677,-2.2709,-2.2709,-2.268,-2.2681,-2.2681,-2.2682,0,0,0,0,0,0,0,-2.2623,-2.2627,-2.2666,-2.2652,-2.2652,-2.2646,-2.2648,-2.2668,-2.2668,-2.2655,-2.2654,-2.2656,-2.2669,-2.2676,-2.2678,-2.2709,-2.268,-2.2681,-2.2682,-2.2683,-2.2768,-2.2769,0,0,0,0,0,0,-2.2623,-2.2626,-2.2665,-2.2666,-2.2635,-2.2648,-2.265,-2.2661,-2.2668,-2.2668,-2.2657,-2.2655,-2.2673,-2.2676,-2.2678,-2.2717,-2.2681,-2.2683,-2.2684,-2.2767,-2.2768,-2.277,0,0,0,0,0,0,-2.2621,-2.2626,-2.2664,-2.2646,-2.265,-2.265,-2.2662,-2.2662,-2.2668,-2.267,-2.2669,-2.2664,-2.2673,-2.2676,-2.27,-2.2717,-2.2684,-2.2685,-2.2765,-2.2767,-2.2769,-2.2795,0,0,0,0,0,0,-2.262,-2.2626,-2.2639,-2.2646,-2.2651,-2.2687,-2.2663,-2.2663,-2.2671,-2.2669,-2.2676,-2.2676,-2.2672,-2.2698,-2.2702,-2.2719,-2.2687,-2.2764,-2.2766,-2.2768,-2.2793,-2.2798,-2.2802,0,0,0,0,0,-2.2618,-2.2646,-2.264,-2.2645,-2.2668,-2.2688,-2.2691,-2.2686,-2.2673,-2.2686,-2.2687,-2.2676,-2.2715,-2.2701,-2.2705,-2.2723,-2.2763,-2.2765,-2.2768,-2.2791,-2.2797,-2.2802,0,0,0,0,0,0,-2.264,-2.2646,-2.264,-2.2671,-2.2679,-2.2685,-2.2701,-2.2693,-2.2705,-2.2702,-2.2695,-2.2697,-2.2723,-2.2725,-2.2709,-2.2755,-2.2737,-2.274,-2.2752,-2.2758,-2.2762,-2.2761,-2.2688,0,0,0,0,0,-2.2649,-2.2665,-2.267,-2.2697,-2.2701,-2.27,-2.2709,-2.2705,-2.2713,-2.2716,-2.2719,-2.2726,-2.274,-2.2749,-2.2762,-2.2794,-2.2794,-2.2808,-2.2813,-2.2816,-2.2819,-2.2835,-2.2841,-2.2779,-2.2779,-2.2778,0,0,-2.2666,-2.2672,-2.2683,-2.2701,-2.2707,-2.2724,-2.2703,-2.2722,-2.2734,-2.2718,-2.2742,-2.2744,-2.2752,-2.278,-2.2793,-2.2783,-2.2837,-2.282,-2.2823,-2.2824,-2.2838,-2.2844,-2.2849,-2.278,-2.278,-2.278,0,0,-2.2706,-2.2713,-2.2735,-2.2742,-2.2751,-2.2751,-2.2756,-2.2763,-2.2764,-2.2788,-2.2776,-2.279,-2.2815,-2.282,-2.2827,-2.2869,-2.2859,-2.2874,-2.2897,-2.2912,-2.2917,-2.2922,-2.2936,-2.2941,-2.2877,-2.2877,-2.2877,0,-2.2727,-2.2752,-2.2748,-2.2767,-2.2775,-2.2763,-2.2785,-2.2791,-2.2804,-2.281,-2.2799,-2.2829,-2.2834,-2.2863,-2.2873,-2.2879,-2.2884,-2.2872,-2.2917,-2.2921,-2.2925,-2.2938,-2.2944,-2.2879,-2.2879,-2.2878,-2.2878,0,-2.2776,-2.2794,-2.2811,-2.2824,-2.2834,-2.2855,-2.2853,-2.2863,-2.2858,-2.2859,-2.2882,-2.2888,-2.2901,-2.2908,-2.2903,-2.2936,-2.2929,-2.2918,-2.2899,-2.2933,-2.2945,-2.295,-2.2881,-2.288,-2.288,-2.288,0,0,-2.283,-2.2841,-2.2847,-2.2852,-2.2862,-2.2875,-2.2895,-2.2909,-2.2918,-2.2927,-2.2943,-2.2964,-2.2954,-2.2961,-2.2956,-2.297,-2.3002,-2.2957,-2.2957,-2.2964,-2.3037,-2.3044,-2.305,-2.2996,-2.2997,-2.2998,-2.3036,0,-2.2869,-2.2904,-2.2901,-2.2934,-2.2949,-2.2938,-2.2955,-2.2962,-2.2963,-2.2976,-2.2977,-2.2991,-2.2978,-2.2982,-2.2995,-2.2996,-2.3016,-2.2993,-2.3009,-2.301,-2.3006,-2.3057,-2.3065,-2.31,-2.3041,-2.3042,-2.3042,0,-2.2919,-2.2931,-2.2966,-2.2972,-2.2979,-2.2994,-2.3006,-2.3019,-2.3027,-2.3027,-2.3035,-2.3028,-2.3047,-2.3029,-2.3054,-2.3039,-2.3045,-2.3047,-2.3048,-2.3048,-2.3027,-2.3057,-2.3112,-2.3116,-2.305,-2.3049,-2.3049,0,-2.2953,-2.2978,-2.3001,-2.3007,-2.3016,-2.3027,-2.3031,-2.3038,-2.3046,-2.3056,-2.3062,-2.3074,-2.3081,-2.309,-2.3087,-2.3074,-2.3113,-2.3094,-2.3112,-2.3112,-2.3119,-2.3118,-2.3174,-2.3126,-2.3126,-2.3126,-2.3126,0,-2.2997,-2.3018,-2.3017,-2.3031,-2.3054,-2.305,-2.3073,-2.3076,-2.3082,-2.3096,-2.3087,-2.31,-2.3096,-2.3109,-2.3106,-2.3127,-2.313,-2.313,-2.3129,-2.313,-2.313,-2.3133,-2.313,-2.3127,-2.3127,-2.3127,-2.3126,0,-2.3038,-2.3038,-2.3063,-2.307,-2.3072,-2.3088,-2.3094,-2.3107,-2.3107,-2.3125,-2.3129,-2.3129,-2.3144,-2.3142,-2.3158,-2.3156,-2.3182,-2.3179,-2.3179,-2.3178,-2.3195,-2.3193,-2.3254,-2.3261,-2.321,-2.321,-2.3211,0,-2.3065,-2.3081,-2.309,-2.3099,-2.3104,-2.3119,-2.3127,-2.3124,-2.3133,-2.3143,-2.3155,-2.3169,-2.318,-2.3203,-2.3204,-2.3217,-2.3212,-2.3233,-2.3214,-2.3215,-2.3211,-2.321,-2.3211,-2.3236,-2.3237,-2.3237,-2.3238,0,-2.3112,-2.3112,-2.3125,-2.3138,-2.3149,-2.3159,-2.3168,-2.3176,-2.3173,-2.3184,-2.3199,-2.3207,-2.3224,-2.3237,-2.3249,-2.3252,-2.3244,-2.3244,-2.3248,-2.3249,-2.3248,-2.3247,-2.3188,-2.3242,-2.3242,-2.3241,-2.3241,-2.3241,-2.3146,-2.316,-2.3168,-2.3183,-2.3189,-2.3198,-2.321,-2.3213,-2.3226,-2.3239,-2.3237,-2.3253,-2.326,-2.3275,-2.3279,-2.3292,-2.3284,-2.3291,-2.3292,-2.3294,-2.3295,-2.3248,-2.3294,-2.3294,-2.3294,-2.3294,-2.3294,0,-2.3192,-2.3197,-2.3211,-2.3224,-2.3235,-2.3228,-2.3238,-2.3247,-2.3262,-2.327,-2.3281,-2.3298,-2.3311,-2.3314,-2.3326,-2.3335,-2.3332,-2.3338,-2.3337,-2.3338,-2.3302,-2.3296,-2.3341,-2.3341,-2.3341,-2.3341,-2.3341,-2.3341,-2.3217,-2.3239,-2.324,-2.3265,-2.3269,-2.3286,-2.3292,-2.33,-2.3306,-2.3325,-2.3336,-2.3338,-2.3343,-2.3356,-2.3367,-2.3368,-2.3372,-2.338,-2.3379,-2.3345,-2.334,-2.3336,-2.333,-2.3381,-2.3381,-2.3413,-2.3413,-2.3414]}]]